Theta_e
308 308 308 308 308 308 308 308 308 309 309 309 309 308 308 308 308 308 309 309 309 311 313 314 314 315 315 314 313 313 313 315 317 320 320 319 318 317 317 315 314 313 312 313 316 318 317 316 316 316 319 321 322 324 323 323 325 325 326 325 322 324 323 324 325 322 322 322 319 317 317 317 317 317 315 314 314 315 316 317 316 316 316 311 311 313 311 309
309 309 309 309 308 308 309 309 309 309 309 309 309 309 309 308 308 308 308 308 308 309 311 314 314 315 315 314 314 313 313 314 317 320 320 319 319 317 315 313 312 312 312 315 319 318 317 317 317 317 319 322 324 324 324 324 323 325 327 325 323 325 324 322 321 320 320 320 319 318 318 317 317 317 315 315 316 315 315 316 316 316 315 310 309 311 309 307
309 309 309 309 309 309 309 309 309 309 309 309 309 309 309 309 309 308 308 308 308 309 309 312 314 315 315 315 315 313 313 317 320 320 320 320 320 318 315 312 311 312 312 315 319 317 317 318 317 318 318 319 323 324 325 324 322 323 324 324 325 324 322 321 319 319 318 318 318 317 318 317 317 317 314 315 316 316 315 315 316 316 316 312 310 311 308 307
310 310 310 310 310 310 309 309 309 309 309 309 309 309 309 309 309 308 308 308 308 308 308 310 313 315 315 315 315 313 318 324 324 321 320 321 320 318 314 311 311 311 312 314 316 316 316 317 317 318 318 319 321 323 324 323 322 323 322 323 324 322 322 320 319 319 318 317 316 316 318 317 317 316 314 315 316 316 316 316 317 316 315 314 311 310 308 306
310 310 310 310 310 310 310 310 309 309 309 309 309 309 309 309 309 309 308 308 308 308 308 309 311 314 314 316 314 315 323 326 323 321 319 319 318 316 313 310 311 311 312 314 315 315 315 316 317 319 319 319 321 323 322 321 322 322 322 322 322 320 320 319 317 318 317 315 316 315 316 316 317 317 315 315 315 316 316 317 317 316 317 315 311 310 309 307
310 310 309 310 309 309 310 309 309 309 309 309 309 309 309 309 309 309 308 308 308 308 308 308 309 313 315 315 314 319 326 323 321 321 316 316 316 313 311 310 311 311 312 314 314 315 316 317 318 319 319 319 320 321 322 321 321 321 321 320 320 320 319 318 318 318 316 314 315 315 315 316 316 317 316 316 315 315 317 317 317 317 316 314 310 310 310 309
310 310 309 310 309 309 309 309 309 309 309 309 309 309 308 309 309 309 309 308 308 308 308 307 308 312 314 316 317 321 325 322 322 320 313 313 313 310 311 310 311 311 312 314 314 315 317 318 318 319 319 319 320 319 320 320 319 319 319 318 319 319 319 318 318 317 315 314 315 315 315 315 316 316 316 316 315 315 316 316 317 316 314 313 311 310 311 310
311 310 310 310 310 309 309 309 309 309 309 308 308 308 308 308 308 308 309 308 308 308 308 308 308 311 313 319 324 322 322 322 321 318 314 312 310 310 311 311 311 311 313 315 315 316 317 318 318 319 320 320 319 319 320 319 318 318 318 318 318 318 318 318 318 317 315 314 315 315 315 314 315 315 315 315 315 316 316 316 316 315 314 314 312 310 311 310
311 311 310 310 310 310 309 309 309 309 309 308 309 308 308 309 308 308 308 308 309 308 308 308 308 311 313 319 324 322 321 323 319 317 315 313 312 311 311 313 312 310 314 315 315 316 317 318 319 320 320 320 319 319 319 318 318 318 317 317 317 317 317 317 317 316 315 314 314 315 314 314 314 315 315 315 315 315 316 317 316 315 315 315 313 311 311 311
311 311 310 310 310 310 309 309 309 309 309 309 309 309 308 308 308 308 308 308 308 308 308 309 309 312 314 318 321 320 322 321 317 316 316 314 314 311 311 315 314 312 314 315 315 315 316 319 321 320 320 318 318 319 319 318 317 317 316 316 315 315 315 316 317 316 316 315 315 314 314 314 314 315 315 315 315 316 315 316 316 315 314 314 313 312 311 311
312 312 311 311 310 310 309 309 309 309 309 309 309 309 309 309 309 308 308 308 308 308 308 310 310 310 316 320 320 320 321 318 315 315 315 314 314 313 313 314 313 313 315 315 314 316 316 318 319 318 318 317 317 318 318 317 316 316 315 315 315 315 315 316 316 316 316 315 315 314 314 314 315 315 314 315 316 316 316 316 316 316 315 314 314 313 313 312
312 312 312 312 311 310 310 309 309 309 309 309 309 309 309 309 309 309 309 308 308 309 309 311 310 311 318 320 319 319 319 316 315 314 314 314 313 314 313 313 311 313 316 316 316 317 315 317 318 317 317 317 317 318 317 315 315 315 315 314 315 315 316 316 316 316 316 315 315 314 314 314 314 315 314 314 315 316 316 316 316 317 316 315 314 313 313 311
313 313 313 312 312 311 310 309 309 309 309 309 309 310 310 309 310 310 309 309 309 309 310 311 311 312 318 320 319 319 318 316 315 314 314 313 313 312 312 313 311 311 314 315 318 318 314 315 317 317 316 317 317 317 315 314 314 314 314 315 315 316 316 317 317 317 316 315 315 314 314 315 315 315 314 315 315 315 315 316 317 317 316 315 313 313 313 311
313 313 313 313 312 312 311 310 309 308 308 308 308 308 309 309 309 310 310 309 309 309 310 312 312 315 319 318 318 318 317 316 315 314 313 312 313 313 311 311 311 311 311 313 317 316 313 314 316 316 316 316 316 315 315 315 315 315 315 316 317 316 317 318 318 318 316 314 314 314 313 314 314 316 315 315 316 315 315 315 315 316 316 315 314 313 313 312
314 314 313 313 313 312 311 310 308 308 307 307 307 307 307 307 308 309 310 309 309 309 311 312 313 318 320 318 318 317 314 315 314 314 314 313 315 315 313 312 312 312 312 313 314 313 312 314 315 315 314 314 315 315 316 317 316 316 316 318 319 317 317 319 318 317 316 313 313 314 314 314 314 316 317 317 316 315 314 315 314 315 315 314 314 313 313 312
314 314 313 313 313 312 311 309 308 307 306 307 306 306 306 306 306 308 309 309 310 310 312 315 315 317 318 316 318 317 314 315 314 315 315 313 316 317 314 313 312 312 312 312 312 312 312 314 315 317 315 314 315 316 317 318 318 318 317 317 320 319 318 319 317 316 316 314 312 314 315 315 315 317 318 317 316 315 315 314 315 315 314 314 314 313 313 313
314 314 314 313 313 312 311 310 308 307 307 306 306 307 306 306 306 307 309 309 312 312 313 318 318 315 315 314 316 317 316 316 316 316 315 313 314 316 314 313 313 313 312 312 312 313 313 314 316 316 316 315 315 317 319 320 319 319 319 318 319 319 317 318 317 315 316 315 314 313 314 314 314 317 317 316 316 315 314 315 315 315 315 315 315 314 314 313
314 314 314 313 312 312 311 311 309 307 307 306 307 307 306 307 306 308 311 311 313 315 315 316 317 316 316 316 315 317 319 318 317 316 315 313 313 314 314 313 313 314 313 313 313 313 314 315 317 317 317 316 315 316 319 320 318 317 318 316 316 317 316 317 317 316 316 315 315 314 313 313 313 315 315 316 316 315 314 315 315 315 315 315 315 315 315 314
313 314 313 313 313 312 312 311 310 308 306 307 307 307 309 313 311 312 316 316 314 318 319 316 317 317 317 317 317 317 318 317 316 315 314 312 311 312 313 313 314 313 313 315 315 314 316 317 320 321 319 316 316 316 317 318 317 316 317 316 315 316 315 317 317 316 315 315 315 314 314 314 314 314 315 315 315 315 315 315 315 315 314 315 314 315 316 315
313 313 313 313 313 313 313 311 310 308 306 307 308 310 316 320 317 314 316 316 314 315 316 316 316 317 317 319 319 316 316 315 314 315 313 312 311 312 312 312 314 315 314 317 317 316 317 319 320 321 318 316 317 317 316 317 317 317 317 317 317 317 315 316 317 316 315 315 316 315 315 315 315 315 315 315 315 316 316 315 315 314 314 314 314 315 316 315
313 313 313 313 313 314 313 312 311 308 306 308 312 316 316 316 318 315 311 312 315 315 315 315 315 316 316 318 316 315 316 315 314 316 314 312 311 312 312 311 314 316 315 316 318 318 319 319 319 318 316 316 317 317 317 318 317 318 318 318 317 317 316 316 317 317 314 315 316 315 316 315 315 315 315 316 316 315 315 315 315 314 314 315 315 317 316 316
313 313 313 313 313 314 314 313 312 309 308 310 315 319 315 312 313 312 309 310 313 314 315 315 314 314 313 315 315 315 315 314 315 317 314 312 312 312 312 312 313 316 315 315 317 318 320 320 318 317 317 317 317 317 318 318 319 320 320 320 318 317 317 316 317 316 312 314 316 315 315 315 315 315 315 315 315 315 315 315 315 315 315 315 315 316 316 320
314 313 313 313 313 314 315 314 312 312 313 312 315 316 312 309 308 308 311 312 311 312 313 313 313 314 312 312 314 313 313 312 313 317 314 312 312 313 313 312 313 315 315 315 316 318 320 319 317 317 317 316 316 316 319 319 318 319 319 318 316 316 318 316 316 315 312 313 315 315 315 314 314 315 315 315 315 315 315 316 317 316 316 316 316 317 319 323
315 314 314 314 314 314 315 314 313 314 312 312 314 313 310 309 308 308 314 315 311 312 312 313 314 314 313 312 313 312 312 311 311 315 314 312 313 313 313 313 313 314 314 314 315 317 318 318 318 318 318 318 317 317 320 319 316 319 321 318 316 316 317 317 317 317 315 313 314 315 315 315 315 315 315 315 316 315 315 316 316 316 317 317 317 320 323 325
315 315 314 314 314 315 315 315 316 313 310 312 314 311 308 309 308 309 314 315 313 314 315 316 317 316 313 312 313 312 311 311 311 315 313 312 313 312 312 313 313 314 314 314 315 316 317 317 318 319 319 321 321 319 321 322 317 317 321 320 317 316 316 318 320 321 322 320 316 315 316 316 318 318 317 317 318 317 316 316 315 315 316 317 318 319 323 324
316 316 315 314 314 315 315 317 316 313 313 314 313 309 307 307 308 309 314 317 316 316 316 316 316 315 314 313 312 312 312 311 312 314 313 312 313 313 313 313 313 313 314 314 315 315 316 317 319 320 320 323 324 321 320 323 317 314 323 328 321 319 321 323 322 323 327 326 318 317 319 318 318 318 318 319 320 319 317 317 316 316 315 317 317 317 321 324
317 316 316 315 315 314 315 317 315 313 315 315 312 309 306 305 306 309 315 317 317 319 318 314 314 313 313 313 311 311 311 311 312 312 312 312 312 313 313 313 313 313 314 316 316 317 317 317 320 322 322 323 324 320 319 320 318 318 327 331 323 320 324 325 324 325 327 323 318 319 321 319 317 316 318 319 319 318 317 316 317 316 315 316 317 316 321 323
318 317 317 316 315 315 315 315 314 314 315 313 310 309 307 306 307 311 317 318 318 320 318 313 312 312 313 313 312 312 310 310 315 313 308 309 311 312 313 313 313 313 314 315 316 319 322 322 323 323 322 322 320 320 323 322 320 321 324 323 321 322 322 321 322 324 323 320 320 322 321 320 318 316 317 317 317 316 316 315 316 315 314 315 316 316 320 322
320 319 318 317 316 315 315 314 314 314 313 311 309 309 308 307 309 314 317 318 319 318 315 313 312 312 313 312 312 313 310 310 313 311 307 309 310 310 311 312 312 313 314 313 315 319 322 319 320 322 322 320 318 322 328 327 322 322 322 320 321 320 318 318 320 320 320 318 320 323 321 319 318 317 318 317 315 315 315 315 314 314 314 315 317 317 321 321
321 320 319 318 316 316 316 315 314 314 312 309 309 309 308 309 312 316 317 316 319 317 312 311 313 314 313 312 313 312 311 310 309 308 309 310 311 309 310 312 312 313 316 316 317 318 316 312 314 320 320 317 319 319 318 321 320 320 320 319 320 320 317 317 317 317 319 319 318 320 321 318 318 319 319 316 316 316 315 314 314 314 315 316 319 322 323 321
323 322 320 318 317 316 316 316 315 314 310 309 309 309 310 314 314 315 317 316 316 317 314 312 314 314 313 314 316 313 312 312 309 310 311 310 311 310 310 313 314 314 318 319 318 317 316 313 314 321 319 316 320 318 313 313 316 319 319 317 319 322 320 319 317 317 319 319 319 321 320 319 318 319 317 316 316 315 315 314 313 315 316 317 321 326 325 319
324 324 322 319 319 317 316 317 315 313 311 309 310 310 313 317 315 313 315 315 317 319 318 317 316 315 314 315 318 315 313 314 311 311 312 312 312 311 311 314 315 317 319 318 318 319 319 316 315 320 319 317 320 320 314 313 315 320 320 318 320 322 322 322 322 323 322 320 321 323 321 319 317 316 316 316 316 315 315 314 314 317 318 319 324 327 324 319
324 324 322 320 319 317 317 317 315 315 312 309 312 314 313 314 316 316 314 314 318 320 319 320 318 317 318 318 319 319 318 318 313 310 313 315 314 313 313 314 316 319 320 319 320 324 325 321 318 319 318 317 317 316 317 318 316 317 319 320 323 323 321 322 324 327 325 321 320 320 322 323 318 316 318 316 316 316 315 315 318 321 320 323 327 327 323 320
323 323 321 320 319 319 318 316 316 316 311 309 315 317 313 314 318 320 318 316 318 319 319 321 319 318 320 320 320 321 321 320 315 311 314 317 316 317 316 314 315 317 320 319 319 322 324 322 320 321 320 317 316 314 316 321 317 313 316 319 321 322 319 319 322 323 322 322 319 318 324 325 317 318 321 317 316 316 315 316 320 323 323 328 330 325 321 319
322 322 321 320 318 319 318 316 317 315 310 312 317 315 313 316 318 318 319 317 317 318 317 318 320 321 321 322 322 322 321 321 319 315 316 317 318 319 317 315 314 315 318 320 319 319 319 319 320 320 319 316 315 315 316 322 322 316 316 318 319 320 318 318 321 319 318 322 320 318 324 322 314 316 319 316 317 316 314 315 318 320 323 330 331 324 320 318
320 320 320 319 317 318 318 317 316 313 311 315 316 313 314 317 318 318 317 315 315 318 317 317 320 323 322 322 324 323 320 321 321 318 318 317 317 317 318 318 316 314 317 319 320 319 317 320 323 318 317 315 314 316 318 321 322 317 317 319 319 320 320 319 322 320 318 320 319 317 320 318 313 316 316 315 316 315 315 315 315 318 321 326 327 323 320 318
319 318 318 318 318 318 318 317 315 311 312 316 315 314 316 316 316 316 315 314 313 315 317 318 320 322 320 320 324 325 321 320 321 320 320 320 319 318 317 319 318 315 315 316 319 322 318 319 323 318 317 315 310 312 316 317 318 318 321 321 319 322 321 319 320 322 322 321 319 316 317 315 314 317 317 315 315 314 315 314 314 315 317 320 322 321 320 318
319 318 318 318 318 318 318 316 314 311 312 315 315 316 318 316 315 314 314 315 314 314 315 316 318 320 319 317 320 325 322 319 321 320 320 320 320 320 318 319 320 317 315 315 318 324 321 317 320 318 316 313 309 312 316 315 315 317 318 318 318 321 322 320 320 321 321 320 318 316 316 314 313 314 315 315 314 314 314 314 313 314 315 318 320 320 319 318
317 317 318 319 318 318 318 315 312 311 313 314 314 316 317 316 315 315 315 314 313 313 314 315 316 317 317 316 317 322 321 319 321 320 318 318 319 322 320 319 322 319 315 315 317 320 319 317 319 316 313 313 311 314 318 318 316 313 313 315 316 317 320 321 320 319 319 317 316 317 316 315 314 314 315 316 315 313 313 313 314 314 314 317 318 319 320 320
317 318 319 318 318 318 316 313 311 311 313 314 314 316 316 316 315 314 314 315 314 312 312 314 315 314 315 316 314 316 319 320 321 319 317 317 317 320 320 318 321 321 317 316 317 318 318 318 317 315 312 314 314 314 316 318 317 314 313 315 314 314 316 318 318 318 318 317 316 316 316 314 314 315 317 317 314 313 314 315 315 315 315 316 317 318 320 321
317 319 319 316 316 316 313 311 311 312 313 314 315 315 315 315 315 314 315 315 314 312 311 311 313 313 314 315 313 313 316 319 321 319 318 317 315 317 319 318 320 321 319 318 317 317 319 318 317 317 315 314 316 316 314 315 316 315 314 314 314 315 316 316 317 317 317 317 316 316 316 314 313 315 317 316 315 314 315 315 316 317 316 316 318 318 319 320
317 319 318 315 315 314 312 312 313 313 313 314 315 315 314 314 315 315 314 314 314 313 312 311 311 311 312 312 313 313 313 315 318 318 318 317 315 316 318 318 319 319 319 320 318 318 322 319 316 317 316 315 318 318 315 314 315 315 315 315 314 314 315 316 317 316 316 317 315 316 317 315 315 318 316 313 313 314 315 317 318 319 319 318 319 319 319 318
317 318 314 313 314 313 314 315 314 313 313 313 314 314 314 315 315 315 314 315 315 314 314 313 312 313 313 312 312 313 313 313 315 315 317 316 315 315 316 316 318 317 316 319 319 319 319 318 315 316 316 315 317 318 314 311 312 314 315 316 315 314 314 315 315 314 315 316 316 317 317 315 315 319 318 315 315 315 316 318 319 320 320 318 318 319 318 317
316 316 313 312 313 314 317 318 316 314 313 313 313 313 313 314 314 314 315 315 315 315 314 314 314 313 314 314 313 313 313 314 315 315 315 315 315 316 316 315 316 316 316 317 319 318 317 316 317 317 317 317 317 317 314 313 312 313 314 315 315 315 315 316 315 314 315 316 315 315 316 315 314 318 319 317 316 315 314 316 317 317 316 317 318 318 317 318
314 315 313 311 311 314 317 319 317 316 315 313 313 313 313 314 314 314 315 315 315 314 313 315 315 313 312 314 313 312 313 313 314 314 314 314 313 313 315 315 314 316 318 317 316 317 317 315 315 316 317 317 317 316 316 316 314 312 312 313 314 315 316 316 315 316 316 316 315 315 315 314 312 314 315 314 314 313 313 313 314 314 315 315 316 317 317 317
312 314 315 312 311 313 316 316 317 317 316 314 314 314 314 314 314 314 314 314 315 314 314 316 315 312 313 314 313 313 314 314 314 313 313 314 314 313 315 316 315 316 316 314 315 318 316 313 314 315 315 316 316 315 316 316 315 313 313 314 313 313 315 315 315 316 316 315 315 315 314 314 314 312 312 312 312 312 311 312 312 313 315 315 315 317 317 316
310 313 315 314 312 313 313 315 316 317 317 316 315 315 314 314 314 314 315 315 315 315 315 316 314 313 314 314 314 315 315 315 314 313 313 314 314 314 314 314 314 314 312 310 314 318 315 312 315 314 314 315 314 314 314 314 314 313 313 314 313 313 314 315 315 315 315 315 315 315 314 315 314 313 312 312 311 311 311 311 311 312 313 315 315 316 316 315
308 310 313 314 314 314 314 314 315 316 316 317 316 315 315 315 315 314 315 315 315 315 316 317 315 314 315 314 315 316 316 316 316 314 314 314 313 313 312 312 312 312 311 310 312 316 314 313 314 314 313 314 313 313 313 314 313 313 313 313 313 314 314 314 314 313 313 315 314 314 314 315 314 312 312 312 311 312 311 311 312 312 312 312 314 316 317 315
305 308 310 309 310 312 312 312 312 313 315 316 316 316 317 317 316 315 315 315 316 316 316 317 317 315 315 314 315 316 316 317 317 316 316 315 314 313 313 313 313 312 311 311 311 314 314 313 313 313 313 313 314 313 313 314 313 313 313 313 313 313 313 313 313 312 313 313 313 313 313 313 312 312 312 311 311 311 311 311 311 311 311 310 312 317 318 315
303 305 305 303 303 305 307 308 310 311 311 312 313 315 315 316 316 316 315 316 316 316 316 317 317 316 316 315 315 315 315 316 317 317 317 316 315 315 314 315 316 314 311 310 310 311 313 313 314 314 314 313 314 313 313 313 314 313 313 313 312 313 313 313 313 313 313 313 313 313 314 313 312 311 311 311 311 311 310 311 310 310 311 310 310 314 316 315
301 301 301 300 300 302 304 307 309 310 310 310 311 312 312 313 314 315 315 315 316 316 316 316 316 316 316 316 315 315 314 314 315 315 316 317 316 316 316 315 316 316 311 310 311 311 311 313 314 315 315 314 314 314 313 313 313 313 313 313 313 313 313 313 313 313 313 314 313 314 314 313 312 312 311 311 311 311 310 310 310 310 311 311 310 311 313 313
299 299 299 300 300 301 303 305 307 308 309 310 310 311 311 312 312 313 314 314 314 315 315 315 316 316 317 317 316 315 314 314 314 314 314 315 315 315 316 315 315 317 313 310 311 311 310 312 313 314 316 315 314 314 314 313 314 314 314 313 313 313 313 313 313 313 312 313 313 314 314 313 312 311 311 311 310 311 311 310 311 311 310 311 311 310 311 312
Wind_Speed
10 11 11 12 12 12 12 12 13 13 13 13 13 13 13 13 13 13 13 12 12 12 9 8 7 6 5 7 8 8 8 9 10 10 9 9 9 8 10 10 11 9 5 4 2 4 5 7 9 9 7 4 3 3 4 3 2 2 2 3 4 5 5 1 2 2 1 2 1 4 5 3 2 3 2 2 3 4 4 5 4 5 2 7 9 15 24 26
10 11 11 12 12 12 13 13 13 13 13 13 13 12 12 12 12 12 13 12 12 13 11 9 8 7 5 5 6 8 8 9 12 13 16 16 13 12 12 11 11 9 5 3 3 6 6 6 8 9 5 2 4 3 3 3 2 3 3 3 5 5 4 1 3 4 2 4 3 2 5 4 3 5 4 1 5 6 7 7 6 7 5 8 10 18 24 24
11 11 12 12 12 13 13 13 13 14 13 13 13 13 13 12 12 12 13 13 12 12 12 11 9 8 7 5 4 5 6 8 10 11 16 19 17 16 13 10 9 8 7 5 4 6 7 7 6 5 5 3 4 4 3 2 2 4 3 3 6 3 4 4 3 3 3 4 5 5 2 4 5 2 4 3 6 7 9 8 7 10 9 9 10 17 22 21
12 12 13 13 13 14 14 14 14 14 14 14 14 14 14 13 13 13 13 13 13 12 13 12 10 8 7 5 3 3 3 5 5 4 9 16 17 16 13 10 8 8 7 6 5 7 8 9 8 5 4 4 5 4 3 3 3 3 4 5 7 2 3 4 5 4 4 5 3 6 3 2 5 2 4 4 6 7 9 9 11 13 13 11 11 15 20 19
13 13 13 14 14 15 15 15 15 15 15 14 14 14 15 14 14 14 14 14 13 13 13 13 11 9 7 4 1 2 1 2 2 0 5 11 15 15 12 10 8 7 7 6 5 6 8 9 7 4 3 4 4 4 4 6 4 2 5 7 9 7 4 1 4 4 4 3 1 5 6 4 4 4 6 7 8 8 5 5 8 11 12 12 15 16 17 16
13 14 14 15 15 16 16 16 16 16 16 15 15 14 14 15 15 15 14 15 14 13 13 12 11 9 6 2 2 2 1 2 0 0 3 8 12 13 11 9 7 6 6 5 5 6 6 7 5 3 3 4 6 6 6 6 5 3 6 7 10 9 6 3 2 2 1 1 4 4 4 3 4 6 6 9 13 11 5 1 1 1 3 11 18 16 15 15
14 14 15 15 16 16 17 17 17 17 17 17 16 15 15 15 15 15 15 15 15 14 14 13 11 9 5 2 2 2 3 4 2 2 3 7 11 11 9 8 7 6 6 6 6 6 5 6 6 4 4 5 6 7 4 4 5 4 6 8 9 7 6 6 0 4 4 5 6 3 3 2 7 6 5 11 15 13 10 5 3 4 6 11 15 14 15 16
14 14 15 15 16 17 17 18 18 19 19 18 18 17 16 15 15 15 15 15 15 15 15 13 9 7 4 2 1 3 4 5 5 4 5 8 11 10 9 7 6 7 7 8 8 6 5 6 7 5 4 4 3 4 1 2 4 6 7 9 6 3 4 6 3 5 6 6 5 4 4 7 9 5 8 16 14 10 11 8 6 6 6 10 12 14 14 14
14 15 15 16 16 16 17 18 18 19 20 20 19 18 17 16 16 15 14 14 15 15 15 13 8 6 4 3 2 4 3 4 6 5 6 9 10 10 9 6 6 7 6 8 9 8 4 3 5 2 3 4 5 6 1 1 4 4 6 7 5 6 6 7 7 7 6 5 4 6 10 10 8 4 11 19 16 11 10 9 8 7 7 8 10 13 13 13
15 16 17 17 16 16 17 17 18 19 19 20 20 19 18 17 17 16 15 15 14 15 15 12 7 5 4 3 3 3 3 3 5 5 5 8 9 9 9 7 7 7 7 8 9 9 5 2 2 2 3 4 6 6 2 3 2 1 4 6 7 10 9 8 10 9 7 6 7 9 10 10 5 3 9 14 10 11 11 11 10 8 9 10 9 10 12 13
17 18 19 19 18 18 18 18 18 19 20 20 20 20 19 17 17 16 16 15 14 15 13 10 6 5 5 3 4 4 4 4 4 5 5 7 8 8 9 10 9 9 9 9 10 10 6 3 0 2 1 1 3 4 4 1 2 3 4 7 9 11 12 11 13 11 7 6 9 9 8 8 3 4 14 14 3 5 10 11 12 11 10 10 10 10 10 11
18 19 20 21 21 21 20 20 20 20 21 21 21 20 19 18 17 17 17 15 15 14 11 8 4 5 5 4 6 8 8 6 5 5 6 6 8 9 9 10 10 10 9 7 8 10 8 4 2 3 3 1 3 4 2 1 3 4 3 6 12 11 12 14 14 11 8 5 8 7 4 8 9 11 19 18 7 5 7 9 10 11 10 9 9 9 8 10
18 19 20 21 23 23 23 23 23 23 23 23 23 22 20 18 17 17 16 16 14 12 9 6 4 6 4 3 7 13 13 10 7 6 7 7 6 7 8 9 9 11 11 8 5 7 9 5 4 5 4 3 4 2 1 1 1 4 3 5 9 8 9 13 13 11 9 5 9 7 3 7 11 16 20 17 9 9 8 9 9 8 8 8 8 9 9 11
17 18 20 21 23 24 25 25 25 25 25 25 25 24 22 19 17 16 15 15 14 11 7 3 4 5 3 4 7 12 14 12 9 7 7 6 4 4 6 7 7 9 10 8 6 5 7 5 3 4 2 2 3 2 3 3 2 4 5 5 5 4 7 8 6 10 10 4 9 8 5 8 9 12 17 15 9 11 11 10 9 8 8 8 9 10 11 11
17 18 19 21 22 24 26 26 26 25 25 26 26 26 24 21 17 15 14 14 12 9 5 3 7 4 2 6 7 7 10 9 8 9 8 7 6 4 5 5 4 5 6 6 5 5 5 4 2 3 1 1 1 2 4 5 4 4 3 4 5 4 7 6 2 12 11 3 7 7 4 8 11 11 9 9 10 11 11 10 9 10 10 10 10 10 11 10
17 18 19 21 22 24 25 25 25 25 25 26 26 25 23 20 17 15 14 12 9 6 3 3 8 7 3 4 4 4 6 6 7 10 10 10 9 4 5 6 3 4 4 4 4 3 4 3 1 1 1 1 2 4 3 4 5 4 5 6 6 6 8 5 2 8 9 5 7 10 5 7 8 6 2 2 9 10 9 9 10 11 11 11 10 10 11 10
17 18 19 20 22 23 24 24 25 25 25 26 26 24 21 18 15 15 12 9 6 5 7 3 4 6 3 3 4 4 4 6 8 10 10 12 11 6 7 6 4 5 3 2 3 2 4 3 1 0 2 4 4 4 2 5 6 4 5 6 7 8 8 5 2 4 6 6 7 11 10 11 9 5 2 3 7 9 10 9 10 10 10 11 10 10 10 10
17 18 19 20 22 23 23 24 25 25 25 25 24 22 19 15 13 12 7 6 4 3 5 4 1 3 4 5 5 2 5 7 9 10 10 12 12 9 8 4 3 6 4 3 3 3 3 3 3 2 3 4 5 5 5 8 7 5 6 5 6 7 7 8 4 2 8 6 7 8 10 16 14 9 9 9 8 10 11 10 10 12 11 12 11 10 9 10
16 17 18 20 21 22 22 23 24 25 25 25 22 18 15 10 6 5 5 6 5 3 3 4 6 4 2 5 5 4 6 7 8 8 9 11 11 9 7 4 3 5 4 2 4 6 5 2 3 3 6 8 8 9 10 11 11 10 10 8 7 7 7 12 9 4 10 7 7 11 12 15 15 12 12 13 12 12 12 10 11 12 12 13 13 11 9 11
16 16 18 19 20 21 21 22 24 23 22 22 21 15 9 4 3 2 4 6 7 7 7 4 10 8 4 3 6 6 5 7 6 7 11 12 11 8 4 4 3 4 5 4 5 5 4 4 5 7 11 11 10 12 14 14 13 12 11 9 8 8 9 13 10 4 9 6 8 13 13 14 15 14 12 13 12 13 13 12 11 12 12 13 14 12 11 13
15 16 17 18 19 21 21 22 23 22 19 16 15 10 3 2 3 2 0 6 12 14 13 9 10 11 6 4 9 9 4 3 5 7 13 14 11 8 5 6 4 5 7 7 4 1 2 6 9 15 17 12 9 11 12 12 13 12 10 8 8 7 10 13 9 4 7 5 7 10 11 13 15 14 12 12 12 14 15 13 14 15 15 14 14 13 13 10
14 14 16 17 18 20 21 23 23 19 15 11 9 6 2 4 2 1 1 5 10 13 13 12 12 10 6 4 9 9 3 4 7 6 13 13 10 7 6 7 7 7 6 6 5 2 4 9 14 17 14 10 11 11 9 10 10 9 6 5 7 8 10 11 6 3 4 3 5 8 9 11 13 15 14 14 14 14 15 15 16 17 16 15 13 12 11 7
14 14 15 16 18 20 20 23 21 12 11 10 7 5 4 3 1 2 1 4 8 10 10 12 13 10 10 8 8 9 5 9 9 7 17 16 8 6 6 8 9 8 6 9 9 7 7 9 14 16 13 12 14 11 8 8 8 7 6 5 8 10 8 7 4 3 4 4 5 7 8 9 11 15 16 17 18 16 16 16 17 17 16 16 15 11 8 8
14 14 15 15 17 18 20 23 15 7 11 11 6 6 6 3 0 2 1 4 6 8 9 11 11 10 13 10 9 13 10 10 8 7 20 19 7 4 6 8 9 7 8 12 13 14 13 8 6 10 11 12 13 10 7 6 8 8 7 8 10 12 11 10 7 3 4 6 4 4 9 8 10 15 16 13 14 15 15 14 15 16 15 15 14 10 8 9
14 14 14 15 16 17 20 18 7 9 16 10 4 7 7 3 2 1 2 4 5 3 3 5 4 7 12 9 11 11 4 8 7 4 17 18 9 6 4 5 6 9 11 13 14 14 14 9 7 8 7 7 8 7 7 6 8 8 7 12 16 15 13 12 10 4 3 5 2 0 7 7 8 13 14 9 7 10 11 11 14 15 14 13 12 10 8 8
14 14 14 14 15 17 17 8 5 15 14 4 4 9 7 3 2 1 1 3 6 1 1 3 4 6 10 7 8 6 3 5 2 5 15 14 7 5 3 4 4 9 10 9 10 8 6 6 6 9 8 7 7 6 7 7 8 8 4 7 12 12 11 11 9 5 3 4 2 3 2 8 7 8 9 6 7 9 9 10 13 13 11 11 11 11 8 8
15 14 14 14 14 14 9 5 11 15 6 2 8 10 8 4 3 3 1 4 6 3 4 2 1 3 5 2 5 7 0 2 3 5 8 5 4 3 5 7 5 6 4 1 5 4 4 5 4 6 7 6 6 7 8 9 7 7 1 1 3 4 6 6 5 5 4 4 3 4 4 8 13 7 9 9 8 9 9 9 12 12 12 11 11 12 8 9
16 15 14 13 13 11 7 9 13 9 4 8 12 10 8 4 4 3 1 4 4 4 3 2 1 2 2 3 1 4 1 1 3 1 2 2 2 2 7 11 8 7 5 4 7 3 2 7 7 8 6 5 8 7 6 8 7 4 1 2 2 2 2 1 2 5 3 4 4 5 7 6 14 5 9 11 10 10 11 11 13 14 14 12 11 12 9 10
17 15 14 13 13 12 10 11 9 6 9 13 12 10 7 3 2 1 2 5 1 3 1 1 1 1 3 2 3 2 1 1 1 1 2 1 2 0 4 7 6 8 5 7 11 5 0 4 5 6 7 7 7 2 1 4 6 4 2 3 5 2 1 2 2 2 3 5 7 7 8 6 14 6 8 8 9 11 11 11 13 15 14 11 10 11 10 10
19 17 15 13 11 10 8 9 10 10 10 10 10 9 6 3 1 1 6 6 1 1 1 1 1 3 6 4 3 6 4 0 2 1 1 1 2 0 2 2 2 6 5 5 9 8 1 2 1 2 4 4 3 4 3 1 2 2 3 2 3 1 1 1 3 2 1 10 7 10 14 9 10 5 8 8 10 12 10 9 12 12 11 10 8 9 9 9
21 20 18 16 14 9 4 5 9 7 7 7 8 6 3 2 1 4 8 3 1 1 3 2 3 7 9 8 5 6 6 3 2 4 3 1 3 2 2 1 1 2 4 5 8 8 4 1 1 1 1 4 5 3 2 2 1 2 3 2 1 3 2 3 1 3 2 11 5 12 17 14 11 5 5 7 10 13 11 10 13 12 11 11 8 8 9 9
24 23 21 21 20 15 8 4 5 2 6 7 6 3 2 2 4 9 6 2 0 4 5 4 5 6 8 9 5 5 6 4 5 7 5 4 5 5 6 6 4 2 3 4 5 5 6 8 7 1 1 5 5 2 2 4 1 2 4 4 1 3 2 1 2 2 5 10 5 11 14 12 15 10 3 5 7 11 11 10 12 12 11 10 9 9 8 8
27 26 25 25 24 21 16 13 10 7 6 6 4 1 1 3 7 8 6 3 2 1 3 3 7 8 7 6 4 5 4 3 7 7 6 6 5 6 8 8 5 3 4 4 3 2 3 6 7 4 3 5 8 5 3 2 4 7 6 6 5 4 3 4 4 3 7 9 5 6 11 7 10 8 10 12 11 11 12 12 11 10 10 10 10 10 8 8
29 28 27 27 27 25 22 18 16 12 3 6 4 0 2 7 8 2 4 6 4 1 1 2 5 8 6 5 4 7 5 4 7 8 5 6 4 5 7 9 10 7 3 2 3 2 4 8 7 9 3 8 13 13 12 4 4 9 6 5 6 5 3 4 5 7 7 6 5 2 6 5 4 3 12 17 15 12 12 12 11 8 9 7 7 8 8 8
27 29 29 28 28 27 25 21 18 14 9 8 3 3 6 10 7 2 3 4 4 3 1 2 2 6 5 4 3 6 6 5 6 7 5 6 6 5 5 8 13 10 3 3 4 3 5 10 7 9 2 9 13 12 10 5 1 6 5 4 6 5 4 5 8 9 5 4 6 4 4 6 4 5 9 12 12 12 12 13 11 9 8 6 6 7 7 7
23 26 26 27 28 28 28 25 21 17 13 8 4 5 9 9 5 3 2 2 4 2 1 1 1 4 5 3 3 5 4 3 4 5 4 6 7 7 6 5 11 14 9 6 3 3 5 7 3 5 2 4 5 4 4 3 1 2 4 5 6 2 5 6 8 7 3 5 9 6 7 7 6 10 13 12 12 12 12 12 11 11 10 8 7 7 7 8
18 18 18 23 27 27 28 28 25 20 12 6 6 8 8 8 7 6 4 4 5 4 1 3 3 4 5 4 4 7 4 1 4 5 3 4 5 8 8 5 9 16 16 11 4 4 7 7 2 4 1 2 1 3 4 3 1 4 3 4 1 3 1 2 2 3 3 8 9 9 12 10 7 9 6 8 12 13 12 13 15 14 11 9 8 8 8 9
12 9 11 22 28 27 27 30 26 18 7 3 8 9 7 6 7 7 6 7 7 7 6 6 5 5 6 6 5 6 7 5 5 5 3 3 4 7 9 6 8 16 18 15 7 4 5 6 4 2 1 2 2 2 3 3 3 5 3 2 2 0 2 2 3 2 5 8 7 10 15 12 11 12 6 4 12 14 14 16 17 15 12 9 8 9 9 8
6 4 6 13 20 25 29 30 22 11 4 5 8 8 6 7 7 5 7 7 6 6 8 8 6 5 7 8 6 3 7 8 6 5 4 4 5 6 9 6 7 12 18 16 9 5 3 5 5 1 1 2 2 1 4 1 0 1 2 4 1 2 2 3 3 3 6 8 8 10 13 13 12 9 7 8 12 13 14 15 14 12 11 10 9 10 9 8
3 3 3 1 11 24 30 27 15 5 4 5 7 8 5 5 6 7 10 9 5 4 5 7 7 7 8 9 9 6 5 7 5 5 5 5 5 5 7 8 6 8 13 14 11 6 2 4 6 1 2 2 2 4 7 7 5 3 2 3 3 2 1 2 3 3 5 7 7 7 10 15 10 1 4 8 10 12 12 11 10 10 10 10 10 10 9 9
3 3 2 7 18 29 27 15 6 4 4 3 6 9 7 5 4 6 8 8 6 4 2 3 6 7 7 8 9 8 5 5 4 5 5 5 7 5 2 4 6 5 4 5 7 6 3 5 7 3 2 6 8 6 10 13 11 8 7 8 8 7 4 4 7 7 6 5 7 7 9 15 8 4 2 4 9 11 11 10 10 9 10 10 9 9 8 9
4 4 3 15 29 32 20 5 4 5 4 5 5 5 5 4 6 8 7 5 5 3 1 2 5 7 7 8 9 8 6 5 4 5 5 5 7 5 4 6 3 2 2 2 4 3 2 2 5 6 6 8 9 5 7 10 8 5 5 7 8 8 8 8 10 8 5 4 6 6 10 16 8 5 5 1 5 8 9 10 9 8 9 9 8 9 9 10
4 3 5 21 35 30 12 3 5 4 5 3 3 4 4 4 5 7 8 8 6 4 3 4 6 9 10 9 9 9 8 7 8 10 10 9 9 6 6 10 9 5 2 2 2 2 2 2 4 7 5 5 6 4 1 1 1 2 5 5 6 7 8 10 9 7 7 6 6 8 11 15 9 2 3 3 5 6 7 7 8 7 8 7 9 10 9 10
3 2 3 20 36 27 8 4 6 6 7 5 5 7 7 6 6 8 9 9 8 5 5 7 8 9 10 8 9 9 8 7 8 9 9 9 8 5 6 7 6 2 3 2 1 1 1 1 2 4 5 4 5 6 4 3 2 1 5 6 8 9 10 10 7 7 10 10 11 13 11 11 10 3 4 6 6 7 8 8 8 8 8 7 8 9 9 10
2 2 1 12 26 19 6 6 8 7 8 10 12 12 10 7 7 12 15 13 11 8 7 6 4 5 6 5 7 9 9 8 6 4 4 5 6 6 6 4 0 2 2 2 2 1 0 1 2 3 6 7 7 8 7 3 0 1 4 7 10 11 12 11 8 8 10 11 14 15 12 11 14 13 12 13 12 12 13 11 9 8 8 8 8 8 9 9
2 3 1 5 11 10 5 5 7 8 9 11 11 11 14 13 9 12 15 14 13 13 11 6 1 2 5 7 8 10 11 12 9 6 5 6 6 5 4 2 2 5 4 4 4 3 2 3 6 9 11 10 11 12 11 8 6 6 8 10 11 11 12 11 9 9 11 11 13 15 15 17 17 18 22 23 21 19 18 17 14 10 8 8 8 9 9 10
3 4 3 2 3 6 6 5 7 8 10 11 7 5 14 18 11 10 12 11 12 14 12 8 7 7 8 9 11 12 12 13 12 10 10 9 9 8 6 4 5 7 6 4 4 4 3 5 11 16 18 17 16 19 18 16 16 16 16 17 15 13 12 12 12 12 11 12 14 14 16 19 17 17 24 26 25 22 19 18 17 14 11 9 8 9 11 11
4 3 3 2 1 4 6 7 9 10 11 12 9 7 15 18 13 11 11 11 12 11 8 8 12 16 16 14 12 10 10 11 11 11 11 11 12 11 10 9 12 12 8 5 4 5 4 7 12 16 19 20 20 21 22 20 20 20 19 20 20 18 15 15 16 17 15 16 17 16 19 23 20 18 23 25 25 23 20 19 18 16 15 12 8 9 12 12
4 3 3 4 3 3 4 5 6 8 10 11 10 11 15 18 18 16 11 8 10 11 11 12 15 18 21 20 16 13 11 11 12 12 11 13 13 10 8 9 11 13 12 9 5 5 4 6 11 15 17 18 19 21 22 21 20 20 20 21 21 21 22 22 22 23 24 23 22 22 25 26 22 21 25 25 23 20 19 21 22 21 21 19 12 10 11 11
3 2 2 4 4 5 6 5 4 4 7 9 8 8 12 17 20 17 11 11 12 10 13 19 21 19 20 21 19 17 17 17 19 18 14 13 11 9 7 8 7 6 8 8 5 4 6 8 11 12 12 13 18 20 21 21 21 23 24 22 21 23 25 26 25 24 23 24 25 25 23 21 21 23 25 23 20 18 20 25 27 24 22 23 17 11 10 10
5 4 3 3 4 5 6 5 4 5 5 5 5 6 9 13 15 14 12 14 16 13 12 18 22 19 17 19 21 23 23 24 26 25 21 17 12 9 7 8 10 7 5 6 5 5 7 6 6 8 8 9 15 20 23 23 23 24 23 22 24 25 25 24 22 22 22 23 25 23 18 17 20 21 20 19 20 21 24 28 28 24 22 22 19 13 10 11
6 5 2 2 3 4 6 5 5 7 6 5 7 8 10 12 12 12 10 8 13 16 14 15 17 14 13 19 20 18 17 18 20 20 18 18 18 16 11 8 10 9 6 6 5 4 7 6 5 7 8 8 13 19 21 19 16 14 16 23 30 31 27 23 21 23 24 21 18 17 16 18 19 17 16 19 22 24 25 25 23 21 20 20 18 15 12 12
Wind_Direction
10 10 11 11 11 12 12 14 16 16 18 19 19 19 18 16 12 9 9 9 9 5 356 348 344 331 291 267 260 265 278 284 293 283 252 253 257 252 260 263 271 272 270 292 197 200 219 205 215 215 205 177 193 215 151 166 183 177 198 223 243 247 252 285 332 357 13 330 119 174 187 220 226 163 147 104 237 245 210 221 196 202 176 109 126 136 141 149
357 357 359 359 360 1 2 4 6 8 9 10 10 10 11 10 8 5 1 360 0 1 357 349 342 339 322 289 267 262 274 280 279 268 254 255 254 251 260 262 261 258 259 266 217 226 233 225 210 191 192 206 190 172 147 167 160 201 235 245 243 260 265 265 339 352 9 325 326 185 183 217 229 165 138 176 223 214 225 234 204 212 178 122 138 143 146 153
347 348 349 348 350 351 352 353 355 358 0 1 2 1 2 2 2 2 357 354 352 353 354 349 342 339 330 310 282 260 275 287 277 261 250 244 238 239 246 249 246 244 245 243 243 259 274 289 278 211 202 230 203 170 177 178 160 212 225 255 252 277 312 314 348 354 10 359 322 295 188 188 242 178 122 218 243 219 223 225 201 217 209 168 158 152 153 160
339 340 341 341 342 343 344 345 345 348 350 352 354 353 354 354 355 356 354 351 346 345 347 346 342 338 333 322 283 244 276 292 272 234 227 223 220 223 225 231 235 234 235 240 265 275 282 287 283 262 232 246 228 185 183 178 164 214 193 232 260 278 320 329 23 27 28 37 325 298 301 219 246 220 152 201 251 243 231 224 209 214 213 184 164 164 165 168
334 333 335 335 334 336 337 338 338 339 341 343 346 347 347 347 348 351 351 349 345 342 340 338 337 334 332 324 238 200 290 282 257 237 218 208 206 208 206 213 218 224 225 230 264 268 267 266 260 255 242 260 247 204 213 200 176 257 233 242 262 269 281 321 60 44 44 56 296 280 274 254 234 216 194 202 230 238 223 225 220 216 216 186 169 172 171 174
330 330 330 329 330 331 330 331 332 332 333 334 336 338 340 341 343 344 346 346 344 342 337 332 329 327 330 337 157 167 249 273 188 93 213 197 196 196 194 202 209 216 213 219 257 259 255 255 242 234 233 248 249 240 233 193 165 243 253 249 263 270 273 271 89 94 97 210 235 246 276 289 249 242 223 218 231 238 232 224 124 187 210 169 167 171 175 183
327 327 325 326 326 326 326 326 326 326 327 328 329 331 332 334 336 337 341 342 340 340 337 329 318 314 327 60 115 188 241 275 258 192 183 181 187 191 192 196 202 202 194 210 236 241 244 248 243 242 245 248 256 257 246 138 158 228 262 264 275 289 281 285 350 152 186 228 238 263 351 285 239 243 243 237 238 237 243 244 149 105 88 133 160 174 182 189
324 324 323 323 324 324 323 322 323 322 322 322 324 326 328 328 329 331 334 336 336 337 337 330 310 297 296 130 158 251 238 252 236 200 189 190 189 191 194 194 199 190 188 214 228 252 268 258 257 264 265 265 316 317 1 113 197 223 251 260 270 294 275 275 243 188 201 227 242 270 276 247 237 255 268 254 249 238 235 234 191 156 131 140 166 183 187 195
324 323 321 321 321 321 320 320 321 320 319 320 320 322 324 325 325 326 328 332 332 333 336 329 307 281 252 195 267 276 246 229 213 204 204 202 200 198 196 192 198 190 195 223 232 254 268 269 271 294 316 297 310 311 317 206 228 217 255 280 299 296 285 273 252 219 208 220 210 232 249 248 245 268 270 256 249 246 236 231 210 173 175 179 178 186 191 197
327 326 323 320 320 319 318 319 318 317 317 316 317 319 321 323 323 323 325 328 329 331 333 327 304 264 227 208 249 260 254 234 209 212 221 214 208 204 200 193 193 195 215 226 221 234 244 291 304 66 17 303 286 281 217 202 247 259 288 303 299 286 281 269 262 244 218 219 196 208 242 251 234 195 255 255 239 233 228 230 222 192 198 204 195 193 193 200
331 330 327 324 322 320 320 320 318 317 314 313 313 314 317 319 320 321 323 324 326 328 330 324 298 238 216 218 238 243 240 234 215 211 216 215 207 202 205 204 199 201 222 232 220 228 256 289 227 106 59 300 311 278 208 201 331 323 321 306 282 273 268 252 250 243 223 223 197 199 249 261 220 187 244 249 212 200 210 221 224 209 210 206 208 206 195 206
332 332 330 329 327 325 325 323 322 319 315 312 310 309 312 315 316 317 319 321 325 327 326 319 281 207 211 242 238 237 239 231 225 222 215 212 209 207 214 216 213 207 219 246 233 222 238 259 193 219 246 223 315 289 238 11 342 307 339 300 279 274 268 253 244 226 205 211 176 167 272 261 223 219 243 247 218 196 208 217 219 213 214 205 212 215 206 210
332 333 332 332 331 329 329 327 325 322 318 314 310 309 309 309 310 311 313 316 319 324 322 306 239 199 211 260 236 229 237 237 233 234 223 221 220 218 224 226 224 218 222 250 260 214 215 221 206 235 264 261 272 296 301 310 273 269 251 254 276 287 268 252 242 209 187 186 148 143 263 256 232 223 236 248 216 195 215 222 218 214 215 211 213 218 216 210
329 330 331 332 331 331 331 331 329 324 319 316 312 310 310 309 304 301 305 308 310 314 313 282 208 194 208 258 250 233 233 235 233 232 225 214 201 218 231 225 228 228 229 243 259 227 207 202 219 254 277 239 259 356 319 262 208 251 263 249 255 275 270 265 236 176 171 174 147 152 246 256 261 238 231 239 202 185 211 217 216 217 217 220 217 219 221 212
325 327 328 329 330 332 334 334 331 326 322 319 317 316 315 311 301 293 293 294 297 295 289 218 196 187 269 260 251 243 231 232 229 219 217 195 179 214 217 201 213 215 217 228 234 221 194 180 214 253 269 193 296 314 288 269 236 218 245 262 232 226 264 277 169 165 170 178 167 163 240 253 260 263 248 225 183 179 208 214 213 219 221 225 223 221 223 220
321 323 324 326 329 332 336 336 332 328 325 323 321 321 318 313 299 285 281 277 277 257 205 187 196 198 294 267 225 250 223 217 214 203 208 194 185 200 172 162 182 191 201 215 212 198 179 191 235 259 262 214 194 224 256 278 260 217 199 244 241 234 265 266 181 190 171 127 187 197 232 257 239 249 309 154 174 183 207 215 214 219 222 226 228 223 221 222
317 318 320 324 327 332 337 335 333 330 328 326 325 324 321 314 292 277 273 256 242 208 194 215 196 191 248 249 235 257 188 187 196 194 207 201 189 175 157 161 183 178 173 187 183 176 186 194 160 85 233 225 214 209 238 258 256 241 214 237 241 235 256 257 274 248 183 139 199 211 234 257 248 238 257 194 189 198 211 219 226 231 231 232 234 226 218 216
313 314 317 321 327 334 338 336 334 332 330 329 328 327 322 311 284 269 252 210 185 161 214 260 251 204 230 225 223 177 131 165 182 188 203 199 190 182 182 198 185 170 170 191 191 179 187 192 179 231 250 225 211 200 209 229 237 250 246 259 261 246 250 256 275 217 184 188 215 212 230 250 256 257 259 249 225 218 222 224 238 244 243 246 245 236 224 214
311 312 315 320 326 335 339 338 336 335 334 330 331 331 318 306 280 243 193 174 155 151 228 214 188 207 224 193 184 125 116 148 166 187 194 188 188 187 203 229 192 185 193 193 192 180 176 193 196 229 245 225 210 206 216 231 240 255 265 269 269 271 267 263 275 187 179 200 219 219 231 246 254 249 246 253 245 237 236 227 235 243 244 249 249 244 232 224
310 311 314 319 325 334 341 340 337 338 337 335 340 339 318 305 296 236 182 199 218 243 277 224 189 216 242 143 133 132 136 155 174 191 181 176 170 163 197 221 196 212 220 200 184 174 172 190 202 223 236 231 216 216 225 235 244 254 263 268 266 273 270 267 276 211 182 199 219 223 234 245 254 252 243 249 253 253 250 239 238 240 240 246 248 245 236 235
309 311 314 317 323 331 339 340 338 338 338 340 345 339 337 9 305 302 322 243 237 241 263 255 214 229 244 134 143 155 137 187 212 182 175 175 159 151 183 190 187 216 218 216 210 143 188 206 217 228 239 244 238 236 238 240 245 250 253 265 271 266 265 272 276 204 182 202 233 237 246 250 255 259 254 249 248 250 250 249 250 246 246 251 249 246 239 233
307 308 313 316 321 329 336 339 337 338 341 345 340 323 14 26 298 223 328 272 252 238 250 255 239 246 251 179 168 163 107 234 227 178 170 176 170 179 184 172 196 214 191 200 224 230 219 226 232 237 248 258 256 256 256 258 258 258 264 275 273 268 273 278 267 186 171 193 242 249 254 258 260 262 258 250 245 244 243 242 250 251 252 255 251 247 239 210
303 305 311 313 319 328 334 336 337 347 352 347 336 326 351 0 33 108 189 271 275 248 242 241 235 238 237 228 189 177 208 230 235 202 174 174 181 199 194 183 208 223 188 192 211 222 227 226 233 242 252 254 255 252 243 265 267 248 252 263 264 261 266 277 253 184 180 210 244 266 266 260 265 267 259 251 247 248 245 240 247 252 251 253 252 247 229 192
299 303 306 310 317 326 334 336 342 9 346 333 320 319 326 306 166 79 243 267 265 234 225 226 224 225 225 228 190 190 223 222 225 210 175 172 166 179 210 205 211 227 217 214 218 230 240 230 218 235 241 240 246 245 227 248 261 238 221 231 253 256 250 258 257 216 210 232 240 293 289 261 241 252 256 252 243 243 244 237 242 249 248 254 257 247 221 190
295 297 300 307 311 321 333 334 352 358 334 324 308 315 323 289 203 49 338 271 252 236 252 225 208 221 217 206 179 181 235 225 225 196 169 175 168 153 206 207 209 230 225 229 234 241 247 235 220 228 229 225 231 241 220 216 259 259 211 217 242 255 256 262 275 301 302 269 222 185 290 268 210 224 249 252 224 230 235 226 233 243 244 249 256 249 222 191
288 291 296 300 303 319 333 334 341 338 328 308 319 317 312 285 239 306 353 273 256 204 96 188 176 200 197 175 161 140 3 259 247 122 159 183 188 163 215 187 202 237 221 229 243 247 243 214 210 222 223 224 229 251 226 207 258 272 225 224 244 255 260 261 272 281 254 262 244 123 304 285 246 216 239 233 196 219 227 223 232 239 240 236 244 250 220 181
280 284 289 292 297 316 334 319 323 335 329 294 328 319 303 284 261 280 312 286 268 159 127 211 201 175 171 142 145 135 253 264 69 105 156 191 199 174 230 201 195 231 200 222 255 237 196 167 157 204 215 221 225 248 228 198 238 264 258 285 262 262 266 262 263 245 235 286 277 153 137 280 276 236 210 202 186 220 229 227 238 240 238 228 229 243 218 178
276 277 280 283 288 299 305 297 312 331 302 303 319 311 302 288 264 286 279 275 266 124 123 220 24 76 81 353 277 150 254 211 110 17 23 5 210 167 230 224 224 223 167 175 237 259 151 180 196 199 197 218 222 236 216 182 213 248 55 39 75 68 301 335 273 253 286 319 265 187 149 254 280 246 183 194 189 213 225 223 238 242 240 230 220 230 214 185
273 270 271 272 277 284 290 289 286 282 286 300 309 308 311 293 270 341 246 259 242 103 97 131 94 66 102 17 291 240 309 54 148 282 22 303 236 129 236 240 259 256 224 206 232 263 135 187 214 188 184 223 218 190 92 175 209 217 129 78 76 78 8 57 248 262 345 287 241 190 157 222 277 257 166 195 199 210 222 221 233 241 243 237 219 219 207 187
270 266 263 259 262 272 283 273 259 274 299 302 300 310 319 285 269 220 237 249 335 79 85 91 113 142 136 134 231 233 231 254 77 139 171 201 186 108 275 271 298 277 272 260 258 262 213 94 351 204 194 210 140 87 30 55 173 165 139 80 58 273 11 58 242 103 8 270 235 184 180 198 268 261 154 188 198 198 209 213 228 239 244 242 220 205 196 184
268 265 257 246 242 243 257 255 243 268 318 314 309 323 311 273 198 227 237 240 11 175 132 157 170 140 159 182 196 198 203 217 144 157 190 174 160 179 245 237 131 313 298 286 273 261 240 159 197 277 204 122 102 90 5 14 36 110 123 107 13 299 13 31 286 107 222 266 219 176 186 191 236 253 142 190 195 191 201 206 218 226 232 237 219 196 191 179
269 266 257 246 240 231 226 230 212 247 326 332 340 334 261 249 229 235 234 77 77 199 154 167 178 168 190 207 211 169 174 204 176 178 199 170 176 195 201 202 160 138 265 247 247 249 246 231 205 238 315 161 146 127 19 357 305 149 132 129 125 284 313 313 246 151 224 258 226 177 181 197 237 246 198 222 207 194 207 211 211 210 216 225 209 193 186 170
272 268 256 246 240 229 224 229 229 254 310 4 26 340 276 244 239 230 207 184 225 172 115 150 177 187 193 202 216 172 176 213 167 183 209 177 196 217 207 215 201 221 250 221 234 228 260 258 191 165 298 184 163 178 216 262 198 181 163 149 168 212 251 249 243 241 243 258 267 189 177 211 263 246 203 218 221 201 203 216 215 199 202 213 202 190 177 166
276 268 255 247 241 236 231 225 230 240 226 83 75 55 214 237 247 232 176 211 239 233 74 96 164 188 202 213 201 161 188 233 162 172 202 172 197 229 208 215 216 231 261 239 271 195 246 285 187 164 219 180 179 206 212 176 168 197 176 159 196 200 221 245 235 248 261 278 288 199 173 214 276 213 193 205 217 208 198 212 217 207 208 202 180 176 170 170
277 267 257 246 236 235 231 220 223 218 164 116 111 183 206 232 248 278 243 242 258 239 201 36 148 189 221 239 214 180 205 231 170 166 196 190 203 219 203 198 201 204 186 211 252 172 234 276 198 163 166 164 182 222 209 135 115 217 154 163 229 205 197 247 254 252 286 321 273 228 213 238 257 258 226 211 217 212 205 210 211 220 220 179 159 177 174 176
273 264 252 237 229 231 226 217 213 196 163 129 133 195 221 236 238 237 267 299 280 268 87 331 217 199 232 229 203 213 229 253 185 171 207 219 227 228 207 181 188 195 190 193 222 187 233 281 180 147 21 142 174 259 208 168 246 197 140 195 230 160 169 227 267 275 302 286 271 261 254 270 304 280 244 215 214 211 208 212 209 219 218 191 189 193 183 188
266 259 242 232 232 229 223 216 201 180 162 143 168 198 222 236 239 247 299 345 311 316 2 236 210 187 229 239 206 201 190 213 191 176 192 211 229 226 215 212 186 190 202 205 222 238 233 265 230 160 295 283 263 319 289 278 107 127 176 229 258 31 87 182 258 303 271 258 271 275 270 279 292 281 253 188 204 210 205 209 212 217 214 206 208 203 198 198
263 251 245 243 237 226 218 210 189 163 142 165 204 222 226 225 230 242 275 301 294 286 269 253 225 193 227 255 242 189 173 193 183 173 205 215 218 197 189 213 194 189 205 210 225 266 231 253 271 146 235 302 8 340 287 321 80 131 227 288 76 243 246 175 182 224 244 251 267 277 280 279 255 261 296 212 200 205 205 207 212 214 209 208 213 215 210 193
260 229 263 254 235 223 210 193 171 146 141 182 213 231 231 243 251 256 274 287 291 271 254 257 253 233 249 265 271 204 174 193 182 176 205 208 223 196 168 194 207 196 202 200 210 248 205 229 257 2 330 315 4 238 189 213 335 109 339 344 57 183 187 186 198 203 225 240 263 277 283 278 255 248 266 227 194 199 207 206 212 213 208 206 207 214 208 188
238 222 275 219 201 202 189 172 153 145 187 191 215 226 234 266 266 255 255 256 266 270 251 261 267 260 267 274 280 273 213 207 202 206 211 197 230 229 171 183 201 200 203 198 204 219 179 221 235 294 355 285 253 205 177 189 208 191 234 259 235 225 206 260 252 224 221 230 246 256 265 271 270 217 227 212 184 197 202 197 213 216 212 214 209 211 204 192
197 249 249 156 174 174 161 150 152 175 198 221 229 232 240 262 273 262 256 250 253 268 283 271 267 273 282 279 277 278 260 238 223 220 228 221 237 249 168 196 202 177 177 195 207 207 177 208 221 208 204 232 243 218 191 203 205 193 203 213 218 218 215 257 251 227 223 231 235 238 253 264 270 73 64 194 178 200 200 193 214 218 216 223 216 213 208 200
218 260 175 163 170 161 147 156 206 179 207 221 224 239 231 233 257 260 261 269 268 270 353 301 255 260 270 266 267 275 278 275 262 250 256 254 248 259 356 348 325 109 117 193 226 222 135 155 227 234 226 238 255 239 195 215 223 221 223 216 218 211 201 225 240 240 246 236 235 247 252 258 265 66 48 76 169 205 209 192 201 213 218 222 217 217 218 215
223 252 149 167 170 160 150 219 204 203 231 219 251 262 229 226 249 247 244 247 243 228 233 245 240 242 246 246 253 264 269 264 252 251 264 278 278 290 358 4 2 1 328 298 301 336 63 113 225 250 266 286 287 291 6 18 358 280 264 238 224 220 219 233 243 257 259 235 233 250 249 257 272 93 125 179 158 185 215 199 194 216 225 221 219 222 223 225
236 262 142 176 178 171 169 218 202 222 230 232 261 247 239 250 246 241 241 229 216 210 223 230 227 229 234 236 242 247 250 248 243 249 261 266 268 297 343 357 11 356 298 297 296 310 319 226 233 262 274 292 301 294 295 348 46 254 253 245 242 245 250 259 263 260 255 242 241 251 252 260 273 247 190 218 203 205 231 224 208 224 235 227 224 227 226 226
261 246 149 187 191 190 202 210 212 225 215 224 239 236 241 250 225 230 239 236 228 223 229 237 223 216 223 228 241 239 232 233 244 261 274 262 261 279 290 296 266 212 208 119 123 119 65 248 267 258 247 249 254 256 259 265 102 237 249 242 244 245 245 254 259 251 250 244 240 249 260 265 272 278 271 262 254 251 255 253 243 239 240 235 231 230 227 224
261 238 199 186 202 216 231 211 220 229 213 220 233 228 231 238 231 226 232 239 237 230 233 239 179 195 218 218 236 245 237 235 235 228 225 232 244 253 238 200 209 237 219 129 119 105 106 195 222 228 234 239 242 249 263 271 261 262 260 249 248 248 246 251 254 249 256 259 249 249 259 264 269 277 277 274 271 270 270 272 272 266 254 244 233 230 230 227
263 255 226 190 210 228 233 227 225 222 211 214 213 197 222 234 239 225 218 224 227 227 237 235 207 211 217 215 232 243 238 237 236 231 232 232 236 246 235 217 236 235 213 182 161 128 127 207 216 223 230 234 239 248 256 260 258 257 257 257 257 252 244 245 248 249 257 264 258 255 263 267 266 266 271 275 275 275 276 278 279 276 266 253 231 229 238 239
260 253 246 304 282 218 225 233 233 233 225 218 211 212 228 234 231 220 217 225 224 215 220 227 216 219 225 225 233 240 235 240 242 234 236 238 239 250 252 239 239 232 216 218 197 152 178 228 219 222 231 231 234 241 245 249 251 250 248 252 254 251 246 245 249 249 246 249 257 264 267 267 267 265 267 271 274 278 283 283 281 279 276 268 239 225 237 240
287 271 291 341 324 264 283 279 258 256 248 239 231 225 231 235 231 225 220 229 234 215 212 232 227 219 224 227 231 237 232 235 243 233 226 228 225 233 249 244 241 235 220 220 211 167 190 226 219 228 238 235 234 238 239 243 249 251 249 246 247 251 251 249 250 250 248 250 256 260 261 262 266 267 265 268 272 280 287 285 281 280 279 277 261 232 237 239
299 309 327 339 322 302 304 297 283 275 260 257 255 242 244 246 242 238 227 224 236 218 208 231 236 227 226 226 227 234 229 229 241 239 231 232 221 212 230 234 233 232 213 208 206 197 213 214 209 225 244 238 235 238 237 237 242 246 249 249 248 251 251 249 248 248 250 252 251 250 255 260 261 259 261 267 275 281 282 279 278 277 277 278 272 250 242 245
297 332 333 310 305 297 286 273 260 259 249 239 247 258 264 261 259 263 255 240 245 243 224 232 240 236 234 232 229 235 234 231 239 241 238 240 231 209 211 216 213 210 192 189 190 190 211 219 209 225 247 235 228 236 237 235 236 239 244 251 250 246 244 242 241 239 240 244 246 247 249 251 251 253 260 267 269 270 269 269 271 273 273 274 274 264 248 247
295 313 304 281 286 272 274 286 273 263 257 238 243 253 259 264 270 275 276 260 253 258 259 257 257 253 247 244 241 245 252 251 253 256 254 255 251 238 228 215 208 202 177 181 193 178 193 212 210 220 244 243 227 234 239 237 237 234 227 234 240 242 242 242 244 245 243 241 242 244 242 245 249 253 258 262 261 260 259 259 262 268 272 274 276 272 254 239